www.pogodaiklimat.ru

Погода и климат >> Архив погоды >> Австралия >> Новый Южный Уэльс >> Нора Хед


ПОГОДА в Нора Хед

  • Прогноз погоды в Нора Хед
  • Монитор погоды в Нора Хед

АРХИВ ПОГОДЫ в Нора Хед

Время (UTC), дата Ветер
(напр.,м/с)
 
Видим.   Явления Облачность Т
(С)
Тd
(С)
f
(%)
Тe
(С)
Тes
(С)
Комфортность P
(гПа)
Po
(гПа)
Тmin
(С)
Tmax
(С)
R
(мм)
R24
(мм)
S
(см)
04 12.02 З 4 н/о н/о +36.2 +5.5 15 +34 +34 очень
жарко
996.1 993.9
05 12.02 З 4 н/о н/о +36.6 +5.8 15 +34 +34 очень
жарко
995.7 993.5
07 12.02 З 3 н/о н/о +35.5 +3.9 14 +33 +33 жарко 996.3 994.1
08 12.02 СЗ 3 н/о н/о +33.9 +3.7 15 +31 +31 жарко 996.9 994.7
10 12.02 С 3 н/о н/о +24.8 +17.8 65 +29 +29 душно 998.5 996.3
11 12.02 С 3 н/о н/о +22.9 +20.4 86 +30 +30 очень
душно
999.0 996.8
13 12.02 С 3 н/о н/о +23.4 +17.4 69 +29 +29 душно 998.0 995.8 +37.0
14 12.02 СЗ 3 н/о н/о +24.4 +15.6 58 +27 +27 жарко 997.8 995.6
16 12.02 Ю 11 н/о н/о +21.0 +19.8 93 +25 +25 комфорт 999.0 996.8
17 12.02 Ю 12 н/о н/о +20.4 +19.2 93 +23 +23 комфорт 999.5 997.3
19 12.02 ЮЗ 11 н/о н/о +20.1 +17.9 87 +22 +22 комфорт 1001.0 998.8
20 12.02 Ю 12 н/о н/о +19.7 +18.0 90 +21 +21 комфорт 1002.3 1000.1
22 12.02 Ю 8 н/о н/о +20.6 +18.2 86 +24 +24 комфорт 1004.2 1002.0
23 12.02 Ю 7 н/о н/о +21.3 +17.7 80 +25 +25 комфорт 1004.9 1002.7
01 13.02 Ю 9 н/о н/о +21.8 +17.6 77 +26 +26 душно 1005.8 1003.5 +19.5
02 13.02 Ю 10 н/о н/о +22.3 +16.1 68 +26 +26 жарко 1005.9 1003.6
04 13.02 Ю 12 н/о н/о +23.2 +15.8 63 +28 +28 душно 1005.8 1003.5
05 13.02 Ю 12 н/о н/о +22.2 +17.3 74 +27 +27 душно 1006.1 1003.8
07 13.02 ЮВ 10 н/о н/о +21.8 +18.0 79 +26 +26 душно 1007.8 1005.5
08 13.02 ЮВ 10 н/о н/о +21.2 +17.0 77 +25 +25 комфорт 1009.1 1006.8
10 13.02 Ю 11 н/о н/о +21.1 +15.6 71 +24 +24 комфорт 1012.5 1010.2
11 13.02 ЮВ 10 н/о н/о +21.0 +15.3 70 +24 +24 комфорт 1013.5 1011.2
13 13.02 ЮВ 10 н/о н/о +20.9 +14.1 65 +23 +23 комфорт 1014.2 1011.9 +26.0
14 13.02 ЮВ 9 н/о н/о +20.9 +14.3 66 +23 +23 комфорт 1014.4 1012.1
16 13.02 ЮВ 8 н/о н/о +20.8 +14.7 68 +23 +23 комфорт 1014.6 1012.3
17 13.02 ЮВ 7 н/о н/о +20.6 +14.3 67 +23 +23 комфорт 1014.7 1012.4
19 13.02 ЮВ 7 н/о н/о +20.7 +13.9 65 +23 +23 комфорт 1015.9 1013.6
20 13.02 ЮВ 7 н/о н/о +20.6 +13.6 64 +23 +23 комфорт 1016.8 1014.5
22 13.02 ЮВ 5 н/о н/о +21.6 +13.8 61 +24 +24 комфорт 1018.8 1016.5
23 13.02 ЮВ 4 н/о н/о +22.3 +13.9 59 +25 +25 комфорт 1019.4 1017.1
01 14.02 ЮВ 3 н/о н/о +25.4 +15.4 54 +28 +28 жарко 1019.8 1017.5 +20.5
02 14.02 Ю 4 н/о н/о +23.8 +16.6 64 +27 +27 жарко 1019.5 1017.2
04 14.02 Ю 3 н/о н/о +25.6 +16.7 58 +29 +29 душно 1018.8 1016.5
05 14.02 ЮВ 2 н/о н/о +24.9 +15.5 56 +28 +28 жарко 1018.6 1016.3
07 14.02 В 2 н/о н/о +23.3 +15.1 60 +27 +27 душно 1018.7 1016.4
08 14.02 СВ 4 н/о н/о +22.6 +15.7 65 +27 +27 душно 1019.1 1016.8
10 14.02 СВ 6 н/о н/о +20.9 +17.1 79 +25 +25 комфорт 1020.3 1018.0
11 14.02 СВ 5 н/о н/о +21.0 +17.4 80 +25 +25 комфорт 1021.1 1018.8
13 14.02 СВ 5 н/о н/о +20.5 +17.1 81 +24 +24 комфорт 1021.5 1019.2 +26.3
14 14.02 СВ 4 н/о н/о +20.5 +16.9 80 +24 +24 комфорт 1021.5 1019.2
16 14.02 СВ 4 н/о н/о +20.0 +16.8 82 +23 +23 комфорт 1021.4 1019.1
17 14.02 СЗ 2 н/о н/о +19.9 +16.5 81 +23 +23 комфорт 1021.9 1019.6
19 14.02 штиль 0 н/о н/о +18.7 +15.9 84 +20 +20 1022.2 1019.9
20 14.02 З 1 н/о н/о +19.1 +16.5 85 +22 +22 комфорт 1022.9 1020.6
22 14.02 С 1 н/о н/о +22.3 +16.8 71 +27 +27 душно 1023.7 1021.4
23 14.02 С 1 н/о н/о +24.2 +16.5 62 +28 +28 душно 1023.9 1021.6
01 15.02 ЮВ 1 н/о н/о +24.3 +15.5 58 +27 +27 жарко 1023.8 1021.5 +18.7
02 15.02 ЮВ 2 н/о н/о +25.2 +16.9 60 +29 +29 душно 1023.5 1021.2
04 15.02 В 2 н/о н/о +25.6 +15.9 55 +29 +29 душно 1022.4 1020.1
05 15.02 В 4 н/о н/о +24.8 +14.9 54 +28 +28 жарко 1022.0 1019.7
07 15.02 В 5 н/о н/о +23.7 +15.2 59 +27 +27 жарко 1022.0 1019.7
08 15.02 В 5 н/о н/о +22.9 +15.0 61 +27 +27 душно 1022.2 1019.9
10 15.02 В 6 н/о н/о +21.9 +16.4 71 +26 +26 душно 1023.3 1021.0
11 15.02 В 4 н/о н/о +21.2 +16.8 76 +25 +25 комфорт 1023.8 1021.5
13 15.02 В 4 н/о н/о +22.0 +16.7 72 +26 +26 душно 1023.2 1020.9 +26.4
14 15.02 СВ 3 н/о н/о +21.3 +17.1 77 +25 +25 комфорт 1022.8 1020.5
16 15.02 СВ 2 н/о н/о +20.9 +17.1 79 +25 +25 комфорт 1021.4 1019.1
17 15.02 В 2 н/о н/о +21.1 +17.1 78 +25 +25 комфорт 1020.8 1018.5
19 15.02 СВ 1 н/о н/о +20.2 +16.2 78 +25 +25 комфорт 1020.7 1018.4
20 15.02 штиль 0 н/о н/о +20.2 +16.6 80 +23 +23 комфорт 1020.9 1018.6
22 15.02 Ю 1 н/о н/о +23.1 +18.4 75 +29 +29 очень
душно
1021.6 1019.3
23 15.02 Ю 1 н/о н/о +23.4 +18.5 74 +30 +30 очень
душно
1021.6 1019.3
01 16.02 ЮВ 1 н/о н/о +24.8 +17.5 64 +29 +29 душно 1020.9 1018.6 +19.6
02 16.02 В 3 н/о н/о +26.2 +18.3 62 +31 +31 очень
душно
1020.0 1017.7
04 16.02 В 5 н/о н/о +26.0 +17.9 61 +30 +30 душно 1018.5 1016.2
05 16.02 В 5 н/о н/о +26.0 +18.2 62 +31 +31 очень
душно
1017.8 1015.5
07 16.02 В 5 н/о н/о +25.0 +18.4 67 +30 +30 душно 1017.1 1014.8
08 16.02 СВ 5 н/о н/о +23.7 +18.8 74 +28 +28 душно 1017.1 1014.8
10 16.02 СВ 7 н/о н/о +22.1 +19.5 85 +28 +28 душно 1017.1 1014.8
11 16.02 СВ 6 н/о н/о +22.3 +19.7 85 +28 +28 душно 1017.1 1014.8
13 16.02 С 5 н/о н/о +21.9 +20.0 89 +28 +28 душно 1016.7 1014.4 +26.8
14 16.02 С 3 н/о н/о +21.4 +19.7 90 +26 +26 душно 1016.2 1013.9
16 16.02 С 4 н/о н/о +21.0 +19.1 89 +26 +26 душно 1014.6 1012.3
17 16.02 С 7 н/о н/о +21.4 +19.0 86 +26 +26 душно 1013.9 1011.6
19 16.02 СЗ 2 н/о н/о +19.5 +16.7 84 +22 +22 комфорт 1014.1 1011.8
20 16.02 СЗ 1 н/о н/о +19.8 +17.6 87 +24 +24 комфорт 1014.5 1012.2
22 16.02 С 2 н/о н/о +23.5 +17.9 71 +28 +28 душно 1015.1 1012.8
23 16.02 СВ 3 н/о н/о +25.8 +18.5 64 +31 +31 очень
душно
1015.0 1012.7
01 17.02 СВ 6 н/о н/о +27.8 +19.3 60 +33 +33 очень
душно
1013.9 1011.6 +19.1
02 17.02 СВ 6 н/о н/о +28.8 +19.7 58 +35 +35 очень
душно
1013.2 1010.9
04 17.02 СВ 7 н/о н/о +28.2 +19.4 59 +34 +34 очень
душно
1011.9 1009.6
05 17.02 СВ 8 н/о н/о +27.4 +20.2 65 +34 +34 очень
душно
1011.0 1008.7
07 17.02 СВ 9 н/о н/о +24.5 +19.8 75 +30 +30 очень
душно
1010.4 1008.1
08 17.02 СВ 10 н/о н/о +23.5 +19.4 78 +29 +29 душно 1010.5 1008.2
10 17.02 СВ 10 н/о н/о +22.9 +20.6 87 +30 +30 очень
душно
1011.0 1008.7
11 17.02 СВ 8 н/о н/о +22.7 +20.4 87 +29 +29 очень
душно
1011.8 1009.5
13 17.02 С 5 н/о н/о +21.9 +20.9 94 +28 +28 душно 1011.6 1009.3 +29.7
14 17.02 СВ 5 н/о н/о +21.6 +20.8 95 +27 +27 душно 1011.1 1008.8
16 17.02 С 6 н/о н/о +21.4 +20.4 94 +27 +27 душно 1009.9 1007.6
17 17.02 С 6 н/о н/о +21.3 +19.9 92 +26 +26 душно 1009.7 1007.4
19 17.02 С 4 н/о н/о +20.5 +19.5 94 +25 +25 комфорт 1009.8 1007.5
20 17.02 С 1 н/о н/о +20.3 +19.3 94 +25 +25 комфорт 1010.5 1008.2
22 17.02 С 2 н/о н/о +23.3 +20.1 82 +30 +30 очень
душно
1010.9 1008.6
23 17.02 СВ 4 н/о н/о +26.3 +20.6 71 +33 +33 очень
душно
1010.9 1008.6
01 18.02 СВ 5 н/о н/о +27.4 +20.5 66 +34 +34 очень
душно
1010.1 1007.8 +20.2
02 18.02 СВ 6 н/о н/о +28.2 +21.2 66 +36 +36 очень
душно
1009.1 1006.8
04 18.02 СВ 7 н/о {туман} н/о +28.5 +21.0 64 +36 +36 очень
душно
1007.1 1004.8
05 18.02 СВ 10 н/о н/о +26.0 +20.3 71 +32 +32 очень
душно
1006.2 1003.9
07 18.02 СВ 11 н/о н/о +23.8 +20.5 82 +30 +30 очень
душно
1005.2 1002.9
08 18.02 СВ 12 н/о н/о +23.2 +20.7 86 +31 +31 очень
душно
1004.8 1002.6
10 18.02 С 8 н/о н/о +22.4 +20.9 91 +29 +29 очень
душно
1006.0 1003.7
11 18.02 С 8 н/о н/о +22.3 +20.8 91 +29 +29 очень
душно
1006.3 1004.0
13 18.02 СВ 8 н/о н/о +22.1 +20.7 92 +28 +28 душно 1005.8 1003.5 +29.6
14 18.02 ЮЗ 2 н/о н/о +21.7 +20.2 91 +27 +27 душно 1006.8 1004.5
16 18.02 В 4 н/о н/о +21.7 +20.7 94 +28 +28 душно 1005.8 1003.5
17 18.02 Ю 3 н/о н/о +21.1 +19.9 93 +26 +26 душно 1006.3 1004.0
19 18.02 ЮВ 2 н/о н/о +21.4 +20.7 96 +27 +27 душно 1005.3 1003.0
20 18.02 ЮЗ 1 н/о н/о +20.8 +20.1 96 +27 +27 душно 1005.2 1002.9
22 18.02 С 3 н/о н/о +24.6 +22.1 86 +32 +32 очень
душно
1005.2 1002.9
23 18.02 СВ 4 н/о н/о +25.5 +21.4 78 +32 +32 очень
душно
1005.9 1003.6
01 19.02 СВ 3 н/о н/о +27.8 +22.1 71 +36 +36 очень
душно
1005.9 1003.6 +20.8
02 19.02 Ю 4 н/о н/о +26.7 +22.3 77 +35 +35 очень
душно
1005.8 1003.5

 

Местоположение метеостанции Нора Хед (Новый Южный Уэльс, Австралия): широта -33.27 долгота 151.57 высота над уровнем моря 20 м.

В архиве по умолчанию представлена погода в Нора Хед за последнюю неделю. Архивные данные за месяц целиком и за предыдущие месяцы, начиная с января 2011 года, Вы можете получить, выбрав интересующий диапазон дат из раскрывающегося списка и нажав кнопку "Ввод!".


*Определитесь, кто Вы:
робот инопланетянин человек

Внимание! Время в таблицах - всемирное. Для получения местного времени необходимо прибавить поправку, которая равна 10 ч.

Смотрите также архив погоды в соседних городах и на ближайших метеорологических станциях:

Погода в Куранбонге (Новый Южный Уэльс, Австралия) (23 км)
Погода в Госфорде (Новый Южный Уэльс, Австралия) (27 км)
Погода на Мангров Маунтин (Новый Южный Уэльс, Австралия) (33 км)
Погода в Ньюкасле (Новый Южный Уэльс, Австралия) (44 км)
Погода в Террей Хилс (Новый Южный Уэльс, Австралия) (56 км)
Погода в Уильямтауне (Новый Южный Уэльс, Австралия) (58 км)
Погода в Сесноке (Новый Южный Уэльс, Австралия) (59 км)
Погода в Патерсоне (Новый Южный Уэльс, Австралия) (71 км)
Погода в Сидней Олимпик Парке (Новый Южный Уэльс, Австралия) (78 км)
Погода в Кентербери (Новый Южный Уэльс, Австралия) (82 км)

Пояснения к столбцам:

Ветер - указаны скорость ветра в м/с - средняя за 10 мин, порывы в срок и между сроками (в фигурных скобках) и направление, откуда дует ветер: С - северный, СВ - северо-восточный, В - восточный, ЮВ - юго-восточный, Ю - южный, ЮЗ - юго-западный, З - западный, СЗ - северо-западный.
Видимость - горизонтальная дальность видимости в метрах или километрах. При видимости от 1 до 10 км при отсутствии осадков обычно наблюдается дымка, при ухудшении видимости до 1 км и менее - туман. В сухую погоду видимость может ухудшаться дымом, пылью или мглою.
Явления - указаны атмосферные явления, наблюдавшиеся в срок или в последний час перед сроком; фигурными скобками обозначены явления, наблюдавшиеся между сроками (за 1-3 часа до срока); квадратными скобками обозначены град или гололедные отложения с указанием их диаметра в мм.
Облачность - указаны через наклонную черту общая и нижняя облачность в баллах и высота нижней границы облаков в метрах; квадратными скобками обозначены формы облаков: Ci - перистые, Cs - перисто-слоистые, Cc - перисто-кучевые, Ac - высококучевые, As - высокослоистые, Sc - слоисто-кучевые, Ns - слоисто-дождевые, Cu - кучевые, Cb - кучево-дождевые. Подробнее классификацию облаков см. в Атласе облаков (PDF).
T - Температура воздуха - температура, измеренная на высоте 2 м над землей.
Td - Температура точки росы - температура, при понижении до которой содержащийся в воздухе водяной пар достигнет насыщения.
f - Относительная влажность воздуха - влажноcть воздуха, измеренная на высоте 2 м над землей.
Te - Эффективная температура - температура, которую ощущает одетый по сезону человек в тени. Характеристика душности погоды. При расчете учитывается влияние влажности воздуха и скорости ветра на теплоощущения человека.
Tes - Эффективная температура на солнце - температура, которую ощущает человек, с поправкой на солнечный нагрев. Характеристика знойности погоды. Зависит от высоты солнца над горизонтом, облачности и скорости ветра. Ночью, в пасмурную погоду, а также при ветре 12 м/с и более поправка равна нулю.
P - Атмосферное давление - приведенное к уровню моря атмосферное давление.
Po - Атмосферное давление - измеренное на уровне метеостанции атмосферное давление.
Tmin - Минимальная температура - минимум температуры воздуха на высоте 2 м над землей.
Tmax - Максимальная температура - максимум температуры воздуха на высоте 2 м над землей.
R - Количество осадков - Количество выпавших осадков за период времени, мм. При наведении курсора мыши на число - период времени, за который выпало указанное количество осадков.
R24 - Количество осадков - Количество выпавших осадков за 24 часа, мм.
S - Снежный покров - Высота снежного покрова, см. При наведении курсора мыши на число - состояние снежного покрова и степень покрытия местности в баллах.